World > North America > United States > Ohio

Cherry Grove, Ohio Regional Weather

Lat: 39.08N, Lon: 84.32W
Wx Zone: OHZ078Web Search
Cherry Grove Weather Warning NWS WEATHER ALERT FOR THE CHERRY GROVE, OH AREA - Issued: 1111 AM EDT Sat May 8 2021 Cherry Grove Weather Warning  

Helpful Tip: You can add this page to Bookmarks by pressing the Ctrl key & d key at the same time. Mac users press command & d.

Feedback


°F Click to change Cherry Grove hourly weather to Imperial units.Click to change Cherry Grove hourly weather to Metric units. °C
Cherry Grove Weather Map
UTC Time: 5/9/2021, 04:16
Your Time:

Cherry Grove, OH Regional Weather

Expires:202105090500;;820361
ASUS41 KCLE 090412
RWRCLE
OHIO REGIONAL WEATHER ROUNDUP
NATIONAL WEATHER SERVICE WILMINGTON, OH
1200 AM EDT SUN MAY 09 2021

NOTE: "FAIR" INDICATES FEW OR NO CLOUDS BELOW 12,000 FEET WITH NO
SIGNIFICANT WEATHER AND/OR OBSTRUCTIONS TO VISIBILITY.


OHZ042-051>053-060>062-070>072-077>081-090500-
  SOUTHWEST OHIO
  
CITY           SKY/WX    TMP DP  RH WIND       PRES   REMARKS
CINC-COVINGTON CLOUDY    54  33  45 E9        30.01F                  
CINC-LUNKEN    CLOUDY    52  47  83 NE3       30.03S                  
HAMILTON       CLOUDY    53  37  54 E8        30.02F                  
DAYTON         LGT RAIN  49  38  65 S6        30.06S                  
WRIGHT-PAT AFB DRIZZLE   49  41  74 SW5       30.05F                  
DAYTON GENERAL LGT RAIN  48  41  76 NE8       30.03F                  
WILMINGTON     LGT RAIN  49  39  68 NE7       30.05S                  
$$


SKY/WX - Weather  TMP - Temperature  DP - Dew Point  RH - Relative Humidity
WIND - Wind Direction/Speed PRES - Barometric Pressure VSB - Visibility
WCI - Wind Chill Index E13G22 Wind - East Wind 13 mph/Gusts of 22 mph